Wind_Speed
28 27 27 26 26 26 24 21 19 19 17 16 17 16 16 16 16 12 10 16 17 20 19 20 17 12 10 9 12 13 14 9 11 9 5 3 2 4 4 5 4 3 4 9 11 7 10 12 9 10 12 19 19 11
27 27 27 27 27 25 23 21 20 19 18 18 17 18 19 18 16 15 14 13 16 18 17 13 14 15 13 13 11 13 12 13 9 10 12 2 2 1 4 2 7 5 10 7 10 7 11 8 3 2 8 15 18 11
33 28 26 28 26 24 22 22 21 19 18 18 18 20 22 20 19 20 19 16 16 21 18 14 11 14 16 11 12 16 7 10 3 6 11 3 3 4 3 3 8 9 13 14 9 20 19 17 12 8 9 15 13 13
36 30 29 28 26 24 23 23 20 20 19 18 17 18 19 20 21 23 27 23 19 24 25 18 14 8 16 17 12 10 7 8 7 5 10 5 5 3 6 7 16 13 14 5 4 3 8 9 8 8 9 12 11 7
31 30 29 29 26 25 24 21 20 19 19 18 16 16 16 17 20 25 30 30 26 25 16 6 13 14 12 11 11 9 7 9 10 6 8 6 6 9 10 11 8 5 1 3 7 9 9 8 7 8 8 7 6 10
27 29 27 28 27 25 22 21 19 19 17 16 18 17 17 12 19 27 35 37 36 27 31 15 8 10 13 11 11 12 11 11 14 8 10 4 4 9 8 9 6 4 5 12 11 11 9 9 6 5 4 2 1 4
24 25 27 27 26 23 21 20 19 18 17 13 11 15 18 18 20 21 26 30 25 22 20 10 12 10 13 14 15 15 14 17 11 12 13 10 3 7 10 12 8 6 7 15 12 10 5 3 2 2 2 1 4 7
25 28 28 28 24 22 21 21 20 19 15 15 13 14 15 16 15 24 26 15 14 18 14 6 6 8 10 12 15 17 17 17 16 15 13 9 7 6 7 8 6 8 6 4 2 3 2 3 5 5 6 8 8 10
28 29 27 25 23 22 23 22 19 17 15 16 19 18 12 15 16 13 10 6 13 17 9 11 9 6 10 11 14 13 15 14 12 15 15 9 9 9 8 10 8 8 9 7 6 6 8 9 10 12 14 14 14 13
28 27 25 24 23 25 24 22 19 12 20 14 19 17 14 15 13 9 11 14 16 18 18 14 10 11 5 11 13 12 9 12 6 11 12 13 19 17 13 12 10 12 12 11 11 13 14 14 13 14 16 17 17 15
26 25 25 24 26 26 24 29 19 18 15 14 20 21 23 21 19 11 9 9 9 6 9 6 8 10 7 6 14 12 5 6 6 5 12 5 11 15 17 16 16 16 17 18 19 20 20 19 18 18 16 15 15 14
25 25 26 26 26 25 31 26 32 26 18 15 22 28 31 22 8 5 8 6 6 5 4 5 4 6 8 8 7 15 6 7 3 5 7 4 9 9 10 13 14 15 15 15 14 12 13 12 13 14 15 15 14 14
27 25 27 26 30 29 29 22 30 23 17 22 24 30 21 10 7 7 7 7 6 6 7 5 4 7 7 2 3 5 5 5 2 6 4 7 7 5 7 8 9 10 11 13 14 14 14 14 14 15 14 13 13 12
30 29 27 33 28 26 27 29 25 23 25 26 21 17 10 7 8 9 13 9 8 8 8 5 9 4 5 5 4 4 3 5 4 4 5 5 5 7 7 7 8 10 11 12 12 12 12 11 10 9 9 9 9 8
32 32 25 29 30 28 28 31 30 29 29 16 9 8 8 7 7 11 10 10 8 7 11 8 6 3 6 3 3 3 5 4 5 5 7 6 6 6 7 8 8 7 6 5 5 5 5 5 6 6 6 7 7 7
32 31 32 34 31 34 36 38 33 35 18 15 8 9 6 8 7 13 10 14 11 11 11 8 6 2 4 3 3 4 3 5 5 7 7 7 7 8 9 7 5 3 2 2 2 3 3 4 4 3 3 4 6 8
40 39 38 34 37 36 39 39 28 19 10 8 6 6 4 8 8 12 12 16 17 14 13 7 5 5 3 3 3 4 5 7 7 7 9 10 10 8 7 5 4 2 1 3 4 4 3 3 3 4 7 9 11 13
40 38 39 37 39 43 43 38 10 7 5 5 2 5 5 7 7 7 12 13 18 18 14 7 3 5 3 3 4 5 8 8 9 9 9 8 6 5 3 2 2 3 3 2 1 2 5 7 9 11 14 15 17 18
41 40 36 36 38 38 35 28 10 6 6 9 8 7 7 8 10 10 13 13 15 16 14 7 4 4 5 7 7 5 6 7 6 6 5 3 2 3 4 5 4 2 1 3 6 8 11 13 15 17 18 19 19 20
32 33 33 36 34 29 19 12 22 9 3 6 5 5 5 5 6 9 12 14 15 15 14 11 8 6 6 5 6 8 8 5 3 0 2 4 6 6 5 3 3 4 6 9 12 14 16 18 19 19 20 20 20 21
31 32 32 30 30 26 11 8 18 11 14 8 7 9 10 9 9 11 15 15 15 16 16 13 10 9 8 9 8 6 3 0 3 7 8 7 5 3 2 4 6 9 12 14 16 17 18 19 20 21 22 21 21 21
27 28 29 24 23 22 13 7 13 17 14 14 13 13 12 11 10 11 12 13 14 15 13 11 10 9 8 6 3 2 7 8 7 6 4 2 1 4 6 9 11 13 14 16 17 19 19 20 20 20 20 19 19 19
21 23 24 27 20 20 14 18 15 16 14 13 14 13 11 11 10 11 9 11 12 11 11 10 8 7 5 4 8 10 8 6 4 2 2 3 5 8 10 12 13 14 15 16 17 19 20 20 21 21 20 19 18 17
24 22 18 17 17 12 15 16 17 15 13 10 9 10 7 10 10 11 11 9 5 9 9 8 8 7 9 12 10 8 5 2 1 3 4 7 9 10 11 13 14 16 17 18 19 20 21 20 19 18 18 17 16 17
13 12 7 10 11 12 14 16 17 16 13 12 11 9 5 9 10 10 10 10 9 9 10 10 12 15 15 11 7 4 2 2 4 6 7 9 10 12 14 15 16 17 18 18 19 20 20 20 19 18 18 17 17 18
7 7 7 7 11 12 12 11 14 16 14 12 12 9 8 10 7 5 8 9 9 10 10 12 14 13 10 7 5 3 3 5 7 8 10 12 14 15 16 17 17 18 18 18 19 19 19 19 19 19 19 19 19 19
5 5 9 12 12 12 12 14 15 16 15 11 12 12 6 5 6 6 8 13 16 17 19 19 16 11 7 6 5 4 5 7 9 10 12 13 15 16 16 16 17 18 19 20 20 19 19 19 19 19 19 19 20 20
6 6 9 9 13 12 11 15 18 16 15 11 13 12 7 5 4 9 16 18 19 18 17 13 10 7 6 5 5 6 7 9 10 12 14 15 15 15 15 16 17 19 19 19 20 19 19 19 19 19 19 19 19 20
7 7 8 9 11 13 12 17 15 16 18 13 17 13 8 5 6 17 19 20 19 18 15 12 9 8 7 6 7 7 9 11 13 15 16 16 16 16 16 18 18 19 19 19 19 19 19 19 19 19 19 19 19 19
9 7 8 9 10 9 13 14 12 13 16 13 15 11 9 7 14 22 22 20 18 16 12 10 9 8 7 7 7 9 11 13 15 15 16 16 16 17 18 19 19 20 20 20 20 20 20 19 19 19 19 20 20 20
11 9 8 11 15 12 11 7 8 13 15 17 11 8 8 8 19 23 22 20 17 14 12 10 8 7 7 7 9 11 13 14 15 15 15 16 17 17 18 19 19 19 19 20 20 19 18 19 19 20 20 19 20 20
12 13 13 12 15 16 12 10 9 15 17 14 8 7 7 11 17 17 16 15 14 13 10 9 8 7 8 9 11 13 14 14 14 14 15 16 17 18 18 19 19 19 19 19 19 19 20 20 20 19 20 20 21 22
15 15 15 14 14 16 15 13 12 13 18 17 11 8 10 14 15 15 15 14 12 9 8 7 7 7 9 11 12 13 14 14 14 15 16 17 18 18 18 19 19 18 18 19 20 20 21 20 19 20 21 22 24 25
Wind_Direction
233 234 234 237 237 238 241 245 249 249 248 248 245 233 224 221 223 237 238 247 257 266 268 268 266 264 275 291 302 298 328 339 3 10 11 39 120 182 227 205 194 209 210 219 224 231 258 272 294 261 273 297 314 320
237 227 229 230 233 238 241 243 247 247 244 246 237 223 216 215 219 237 249 249 259 265 275 273 265 262 265 272 275 282 309 325 334 1 5 322 316 233 243 250 230 244 229 239 226 233 254 258 306 335 327 282 293 309
231 230 227 226 228 233 236 240 243 241 241 238 230 223 216 219 226 240 252 251 253 269 289 293 281 240 240 246 261 268 299 309 357 353 350 330 281 314 290 267 278 271 259 263 235 232 245 266 282 299 297 295 289 294
228 229 232 223 224 225 227 234 238 234 232 229 225 223 224 232 235 238 251 256 246 257 273 287 268 266 238 249 260 248 246 300 330 353 351 347 17 326 292 265 304 275 276 240 304 266 246 234 258 265 264 278 248 234
231 227 225 226 219 220 225 230 228 229 223 223 226 227 227 237 251 237 239 253 249 241 250 305 296 231 238 248 233 222 229 255 280 308 305 313 1 345 342 322 262 245 359 219 194 201 222 230 203 244 238 244 279 262
225 219 219 226 218 218 221 221 224 217 216 223 228 222 222 263 267 240 238 241 238 243 250 253 274 230 230 225 212 214 227 232 242 237 261 293 352 331 315 302 233 98 40 122 109 103 117 107 116 108 110 147 268 262
220 216 214 212 219 218 213 215 206 207 211 210 217 219 238 253 244 256 236 236 236 229 226 255 250 247 233 226 220 225 230 235 239 248 257 271 304 296 303 272 237 123 123 140 132 108 86 62 42 55 118 242 275 273
213 211 209 210 209 212 209 199 194 196 197 201 229 232 246 253 239 232 227 226 195 204 222 218 249 226 227 224 220 224 231 235 237 241 257 275 277 242 269 290 184 151 124 129 176 259 283 276 258 276 293 289 285 283
210 207 205 206 200 204 196 189 193 194 208 206 219 220 217 191 195 191 178 181 185 193 194 214 224 264 216 219 216 222 229 227 238 247 253 258 255 229 247 235 231 214 201 215 243 270 284 286 275 279 292 295 300 295
206 202 200 199 197 190 183 183 170 200 189 198 183 179 165 166 157 168 160 165 177 200 217 234 220 235 254 185 204 205 217 219 245 253 242 240 241 244 246 250 241 235 254 267 273 279 287 288 281 282 286 288 292 289
196 194 194 191 183 182 184 168 181 194 196 201 196 173 153 151 148 139 146 161 186 220 234 247 237 251 208 176 205 199 222 208 220 226 186 247 252 255 256 261 259 263 269 275 279 281 279 274 272 276 283 282 284 286
189 185 180 179 183 188 171 169 191 199 202 199 181 162 149 152 154 163 165 183 202 213 222 230 221 179 158 137 185 190 176 196 220 198 194 249 268 263 257 258 260 263 270 276 274 272 278 282 285 284 285 287 287 286
174 178 180 177 166 162 170 180 190 191 184 165 158 155 166 175 198 177 191 194 195 187 198 193 188 155 135 111 129 166 179 205 211 189 225 248 267 270 261 257 258 258 261 264 268 269 269 269 271 273 273 276 278 277
167 164 163 165 167 172 172 183 175 164 164 161 150 161 173 183 193 200 195 194 185 182 171 171 158 164 169 164 156 178 183 183 208 231 233 244 247 251 253 260 265 268 268 265 260 256 255 258 261 264 265 261 258 253
165 163 168 173 170 161 164 157 155 157 156 150 147 176 206 191 198 197 196 197 182 177 153 184 180 188 176 195 212 192 189 217 226 234 243 246 261 259 266 279 284 278 266 257 252 241 234 229 221 213 214 215 216 219
159 157 159 154 155 160 158 154 152 155 159 159 162 190 217 211 205 191 181 189 173 155 173 184 190 190 212 241 232 213 209 221 243 247 251 263 274 292 304 307 302 290 266 221 200 188 175 172 176 189 218 255 272 278
150 156 157 156 159 158 150 149 149 157 168 179 193 228 225 208 204 193 188 183 173 183 195 198 211 214 225 221 227 236 245 263 265 272 284 285 290 298 301 307 313 335 80 121 132 143 161 194 247 277 287 291 294 297
150 148 153 159 158 156 158 161 161 132 155 186 159 304 221 217 196 191 180 188 189 197 203 215 239 226 228 232 247 283 298 289 285 284 286 286 285 278 261 212 158 141 138 143 194 294 305 308 308 308 308 307 304 302
146 152 158 160 157 157 163 176 163 134 165 200 241 214 189 184 186 190 191 196 197 204 197 209 225 238 256 272 289 320 327 314 298 284 270 255 212 151 135 132 132 142 229 277 288 295 299 301 302 304 304 305 305 305
142 149 157 161 162 161 167 193 195 203 303 224 212 193 196 205 219 220 210 202 202 204 211 219 233 259 291 301 313 322 319 303 279 177 124 120 118 123 134 159 216 263 282 289 292 296 300 302 304 305 307 308 309 308
145 151 155 162 170 179 180 203 198 224 237 256 240 244 248 248 238 219 210 206 208 213 222 229 248 273 286 295 296 303 316 10 129 137 132 136 148 168 225 271 285 289 291 296 300 304 306 308 311 312 311 310 309 309
153 157 162 170 184 196 212 196 212 232 244 259 263 255 252 245 234 210 207 210 217 222 228 238 253 273 290 294 289 188 145 142 139 137 143 166 257 288 291 290 291 298 304 307 307 307 306 307 310 311 312 312 311 312
172 176 186 187 194 202 227 233 236 244 241 246 242 234 234 226 214 204 205 221 221 229 238 248 261 265 251 202 159 151 148 148 155 180 264 287 298 300 301 304 307 305 304 307 310 314 316 317 315 313 311 309 309 309
195 193 196 203 211 213 224 221 222 224 224 225 218 209 224 213 210 209 221 225 235 222 227 223 217 198 177 163 163 163 164 179 254 298 311 306 302 303 305 308 311 314 315 316 317 317 318 319 317 314 312 311 310 309
169 182 203 201 206 219 219 218 215 213 219 218 213 209 218 207 210 219 231 233 231 217 206 200 189 176 172 179 180 181 209 282 294 298 301 304 310 312 313 314 314 315 317 318 319 320 320 319 318 317 315 312 310 309
194 202 210 215 216 214 215 218 218 217 218 215 210 212 214 202 208 225 224 209 186 178 179 177 173 178 184 189 195 228 267 287 305 310 312 313 314 315 315 316 317 317 318 318 318 317 316 316 316 314 312 312 312 312
209 227 232 235 231 228 227 221 217 207 205 205 211 204 198 203 223 229 200 183 177 177 179 180 182 185 194 212 237 262 285 300 305 308 311 312 313 314 313 313 313 313 315 316 316 316 315 313 312 311 310 310 310 311
234 260 265 245 223 229 226 207 197 191 196 203 196 192 196 211 223 187 179 177 174 175 179 181 188 200 220 239 258 280 294 303 309 312 313 313 313 312 311 312 313 315 316 316 315 314 313 313 311 311 311 311 311 311
255 264 233 211 206 199 194 194 190 194 188 194 193 195 210 234 220 186 181 181 178 176 183 192 202 217 233 253 273 289 301 308 312 313 314 314 312 312 314 315 316 316 315 315 315 314 314 314 313 313 313 315 315 314
253 243 210 193 182 182 171 169 179 189 192 194 193 204 227 234 195 187 185 186 187 190 197 205 215 228 248 268 283 295 304 309 312 313 312 312 313 315 316 317 318 317 317 317 317 316 315 315 315 315 316 316 315 315
229 228 218 204 190 179 189 194 194 191 181 176 187 214 221 218 193 192 191 192 194 197 205 216 230 242 259 276 292 303 307 311 311 311 311 312 314 314 315 316 317 316 315 315 316 316 317 317 317 317 317 317 318 318
224 224 224 221 214 213 212 210 196 189 186 189 203 211 197 182 191 195 197 197 200 206 214 223 236 254 274 289 299 303 307 309 309 310 311 313 314 316 317 317 317 317 317 318 319 319 320 319 319 318 319 320 320 320
218 216 219 218 214 213 213 212 215 212 213 215 222 221 194 179 185 191 195 200 208 216 223 235 255 274 285 294 300 304 307 309 310 312 314 316 317 318 319 319 319 320 321 322 321 321 321 320 320 320 320 321 321 320
Height
2910 2915 2920 2925 2929 2933 2936 2939 2942 2944 2946 2948 2949 2952 2954 2956 2958 2960 2963 2963 2965 2965 2967 2969 2970 2972 2973 2973 2972 2972 2971 2968 2965 2961 2961 2961 2962 2964 2966 2967 2968 2969 2971 2971 2972 2973 2971 2964 2966 2968 2968 2965 2963 2960
2902 2907 2912 2917 2922 2926 2930 2934 2936 2938 2941 2942 2944 2947 2950 2953 2955 2957 2958 2961 2963 2963 2964 2965 2966 2969 2970 2970 2971 2971 2972 2970 2969 2967 2965 2964 2964 2965 2966 2967 2967 2969 2969 2969 2969 2967 2964 2964 2965 2964 2964 2963 2962 2962
2895 2900 2904 2910 2914 2919 2924 2927 2930 2933 2935 2937 2940 2943 2946 2949 2952 2954 2955 2958 2960 2960 2961 2960 2962 2965 2965 2967 2969 2969 2971 2970 2969 2969 2966 2965 2965 2966 2966 2966 2966 2966 2965 2961 2959 2961 2962 2961 2962 2963 2963 2962 2961 2961
2887 2893 2899 2903 2907 2912 2917 2921 2924 2927 2930 2933 2936 2940 2943 2946 2948 2950 2950 2954 2958 2958 2958 2961 2960 2961 2961 2962 2965 2967 2969 2969 2968 2967 2966 2966 2966 2966 2965 2965 2965 2964 2961 2958 2959 2959 2959 2960 2961 2961 2961 2960 2959 2959
2881 2886 2892 2897 2901 2906 2910 2915 2918 2922 2925 2929 2933 2936 2939 2941 2943 2945 2947 2948 2952 2957 2955 2956 2956 2958 2958 2959 2962 2964 2966 2967 2967 2966 2967 2967 2966 2965 2964 2962 2961 2959 2957 2957 2958 2959 2959 2959 2960 2961 2960 2960 2960 2960
2874 2880 2885 2891 2895 2900 2905 2909 2913 2917 2922 2926 2929 2931 2934 2936 2936 2938 2937 2941 2945 2949 2951 2954 2956 2955 2955 2957 2960 2962 2963 2965 2966 2967 2965 2964 2965 2966 2963 2961 2959 2956 2956 2955 2958 2958 2959 2959 2959 2959 2959 2959 2960 2960
2869 2874 2879 2885 2891 2895 2900 2904 2909 2914 2918 2922 2925 2928 2930 2932 2933 2934 2933 2937 2941 2946 2950 2953 2953 2953 2953 2955 2957 2959 2961 2962 2963 2963 2962 2963 2964 2963 2961 2959 2958 2957 2958 2958 2958 2959 2960 2960 2960 2960 2960 2960 2960 2960
2864 2868 2874 2879 2885 2891 2895 2901 2906 2911 2915 2919 2922 2924 2926 2927 2928 2928 2930 2934 2939 2945 2949 2951 2951 2951 2951 2953 2955 2956 2957 2958 2960 2960 2960 2961 2962 2961 2959 2956 2956 2958 2958 2959 2959 2959 2959 2960 2960 2960 2959 2959 2958 2957
2857 2862 2869 2875 2880 2887 2892 2898 2903 2908 2912 2916 2918 2921 2923 2924 2926 2928 2932 2935 2938 2946 2947 2948 2949 2949 2949 2950 2952 2954 2955 2956 2958 2956 2957 2960 2958 2958 2957 2957 2957 2957 2958 2958 2958 2958 2958 2958 2958 2958 2957 2956 2954 2954
2852 2858 2865 2871 2877 2883 2890 2896 2902 2905 2908 2914 2916 2919 2922 2926 2929 2931 2934 2936 2939 2942 2943 2944 2946 2946 2948 2947 2949 2953 2953 2954 2954 2953 2954 2954 2953 2953 2954 2955 2955 2955 2955 2956 2957 2957 2956 2955 2955 2955 2953 2952 2951 2950
2848 2855 2861 2867 2874 2881 2887 2894 2899 2904 2908 2912 2914 2918 2923 2927 2931 2933 2935 2938 2940 2940 2939 2940 2941 2942 2945 2945 2947 2950 2950 2951 2950 2951 2952 2950 2947 2949 2950 2951 2953 2953 2953 2953 2952 2952 2952 2952 2951 2950 2949 2949 2948 2947
2846 2852 2859 2865 2872 2878 2885 2892 2897 2902 2907 2910 2914 2920 2925 2930 2932 2933 2934 2936 2936 2937 2936 2938 2938 2939 2941 2942 2943 2946 2947 2948 2947 2948 2949 2946 2947 2947 2947 2947 2948 2948 2948 2948 2948 2949 2949 2948 2947 2947 2946 2945 2944 2943
2844 2851 2857 2864 2871 2878 2885 2891 2897 2901 2906 2911 2918 2922 2927 2930 2930 2931 2932 2933 2933 2934 2936 2937 2938 2938 2940 2942 2943 2944 2945 2946 2947 2946 2946 2945 2944 2944 2945 2945 2945 2945 2945 2945 2945 2944 2944 2943 2943 2943 2942 2941 2940 2940
2844 2851 2858 2865 2872 2878 2885 2890 2897 2902 2908 2913 2918 2921 2924 2925 2925 2926 2928 2931 2933 2934 2935 2938 2939 2939 2940 2941 2942 2943 2944 2944 2944 2944 2943 2943 2943 2943 2943 2944 2944 2943 2942 2941 2941 2941 2940 2940 2939 2939 2939 2939 2939 2939
2845 2852 2859 2865 2873 2879 2886 2892 2898 2904 2909 2914 2918 2921 2920 2922 2923 2926 2928 2931 2933 2934 2936 2938 2939 2940 2940 2941 2941 2942 2942 2942 2941 2940 2940 2941 2941 2942 2942 2941 2940 2940 2939 2938 2938 2938 2939 2939 2939 2940 2940 2940 2940 2940
2846 2854 2861 2868 2876 2882 2887 2894 2900 2907 2912 2915 2916 2918 2919 2921 2923 2925 2927 2930 2932 2934 2936 2938 2939 2940 2940 2940 2940 2940 2940 2939 2939 2939 2939 2939 2939 2938 2938 2937 2938 2938 2938 2938 2938 2939 2939 2939 2939 2940 2940 2939 2939 2939
2850 2855 2864 2872 2879 2885 2892 2900 2905 2910 2913 2914 2916 2917 2918 2920 2922 2924 2925 2928 2931 2935 2936 2938 2938 2938 2939 2939 2938 2938 2938 2938 2938 2938 2937 2937 2937 2936 2935 2935 2935 2935 2936 2937 2938 2939 2939 2939 2939 2938 2938 2937 2936 2935
2856 2862 2870 2876 2882 2888 2895 2901 2905 2909 2912 2914 2916 2917 2918 2920 2922 2923 2925 2927 2931 2933 2935 2937 2937 2937 2937 2937 2937 2938 2937 2936 2936 2936 2936 2935 2935 2934 2934 2934 2934 2935 2936 2936 2937 2937 2937 2937 2937 2936 2935 2934 2932 2930
2862 2869 2876 2883 2890 2895 2900 2905 2908 2911 2914 2916 2916 2917 2918 2920 2921 2923 2924 2926 2929 2931 2934 2935 2936 2936 2936 2936 2936 2935 2934 2934 2933 2933 2933 2933 2933 2934 2934 2935 2936 2937 2937 2937 2937 2937 2936 2935 2934 2932 2930 2928 2926 2924
2871 2877 2883 2889 2896 2901 2905 2908 2910 2912 2913 2915 2916 2917 2919 2920 2921 2922 2923 2925 2928 2930 2932 2933 2934 2935 2935 2935 2934 2934 2933 2932 2932 2932 2933 2933 2934 2935 2936 2936 2937 2937 2937 2936 2935 2934 2932 2931 2929 2927 2925 2923 2921 2918
2880 2884 2890 2895 2899 2903 2907 2908 2911 2912 2913 2915 2915 2917 2918 2918 2919 2920 2922 2924 2926 2927 2929 2931 2933 2934 2933 2933 2932 2932 2931 2932 2933 2933 2934 2935 2935 2936 2936 2936 2936 2936 2935 2933 2932 2930 2928 2925 2923 2921 2919 2917 2915 2912
2885 2890 2894 2899 2902 2905 2907 2908 2909 2911 2913 2913 2913 2914 2915 2916 2917 2919 2921 2922 2924 2926 2928 2930 2931 2931 2931 2931 2931 2931 2932 2933 2934 2935 2936 2936 2936 2936 2936 2935 2934 2933 2931 2930 2928 2926 2924 2922 2919 2916 2914 2912 2909 2907
2890 2894 2897 2900 2903 2905 2906 2906 2908 2909 2910 2911 2911 2912 2913 2915 2916 2918 2920 2920 2923 2924 2926 2928 2929 2929 2929 2930 2931 2932 2933 2934 2935 2936 2936 2936 2935 2934 2933 2932 2931 2930 2928 2926 2924 2921 2919 2917 2914 2911 2909 2907 2905 2902
2893 2895 2897 2899 2901 2901 2902 2903 2904 2906 2907 2908 2909 2910 2911 2913 2915 2916 2917 2919 2921 2922 2924 2925 2926 2927 2928 2930 2932 2933 2934 2935 2935 2934 2934 2934 2933 2932 2931 2929 2927 2925 2923 2921 2918 2916 2914 2911 2909 2906 2904 2902 2900 2898
2893 2895 2896 2895 2896 2898 2898 2899 2901 2903 2905 2906 2908 2909 2910 2912 2913 2914 2915 2917 2918 2919 2921 2923 2924 2926 2928 2930 2932 2933 2933 2933 2933 2933 2932 2931 2930 2929 2927 2925 2923 2921 2919 2917 2914 2911 2909 2906 2904 2901 2899 2897 2895 2893
2890 2891 2892 2891 2892 2894 2895 2896 2898 2900 2903 2904 2906 2908 2909 2910 2912 2912 2912 2914 2915 2918 2920 2922 2925 2927 2929 2930 2931 2931 2932 2931 2931 2930 2929 2928 2926 2925 2923 2921 2919 2917 2915 2913 2910 2907 2905 2902 2899 2897 2894 2892 2890 2888
2888 2888 2888 2888 2889 2890 2891 2893 2895 2898 2900 2902 2904 2907 2908 2909 2908 2909 2909 2911 2913 2916 2919 2921 2924 2926 2928 2929 2930 2930 2929 2929 2928 2928 2927 2925 2923 2922 2920 2918 2915 2913 2911 2908 2906 2903 2900 2898 2895 2893 2890 2888 2885 2882
2885 2885 2885 2885 2885 2886 2888 2890 2892 2895 2898 2900 2903 2904 2905 2905 2906 2906 2908 2910 2913 2917 2920 2923 2924 2926 2927 2928 2928 2928 2927 2927 2926 2925 2923 2922 2920 2918 2916 2914 2912 2909 2907 2904 2901 2899 2896 2894 2891 2888 2886 2883 2881 2878
2883 2883 2883 2882 2883 2885 2886 2888 2890 2892 2895 2897 2899 2901 2903 2904 2905 2906 2908 2911 2914 2917 2920 2922 2923 2925 2926 2926 2926 2926 2925 2924 2923 2921 2919 2918 2916 2914 2912 2910 2907 2905 2902 2900 2897 2894 2892 2889 2886 2884 2881 2878 2875 2872
2881 2881 2881 2882 2883 2884 2886 2887 2890 2892 2894 2896 2898 2900 2901 2902 2903 2905 2908 2911 2914 2916 2919 2921 2922 2923 2924 2924 2924 2923 2922 2921 2919 2918 2916 2914 2912 2910 2908 2905 2903 2900 2897 2895 2892 2890 2887 2884 2882 2879 2876 2873 2871 2868
2879 2880 2881 2882 2884 2886 2887 2889 2890 2891 2893 2895 2898 2899 2900 2900 2902 2904 2907 2910 2913 2916 2918 2919 2921 2922 2922 2922 2921 2920 2919 2918 2916 2914 2912 2911 2909 2906 2904 2901 2899 2896 2894 2891 2888 2886 2883 2880 2877 2874 2872 2869 2866 2863
2877 2878 2880 2881 2883 2886 2887 2888 2890 2892 2893 2895 2897 2898 2899 2900 2903 2906 2909 2911 2913 2915 2917 2918 2919 2919 2919 2919 2918 2917 2915 2914 2912 2911 2909 2907 2905 2903 2900 2898 2895 2892 2889 2887 2884 2881 2879 2876 2873 2870 2867 2864 2861 2858
2874 2876 2877 2879 2881 2883 2886 2888 2889 2891 2893 2895 2897 2898 2899 2901 2904 2906 2908 2910 2912 2914 2915 2916 2916 2917 2916 2916 2915 2913 2912 2910 2909 2907 2905 2903 2901 2899 2896 2894 2891 2888 2886 2883 2880 2877 2874 2871 2868 2866 2863 2860 2856 2853